• In Uzbekistan
  • List of Countries
  • For 7 days
  • Water Temperature
  • Satellite Maps
  • Weather Map
  • Weather Widgets
  • user-avatar
    Login

    Hourly Weather Baalbek

    Today, 23 September, Sunday

    Time Temperature Precipitation Wind Pressure Humidity
    00:00 +22°C° 0 mm 1 mps 662 mmHg 58%
    01:00 +21°C° 0 mm 1 mps 661 mmHg 59%
    02:00 +21°C° 0 mm 1 mps 661 mmHg 61%
    03:00 +20°C° 0 mm 1 mps 661 mmHg 60%
    04:00 +20°C° 0 mm 1 mps 661 mmHg 59%
    05:00 +20°C° 0 mm 1 mps 661 mmHg 58%
    06:00 +21°C° 0 mm 1 mps 662 mmHg 50%
    07:00 +23°C° 0 mm 1 mps 662 mmHg 42%
    08:00 +24°C° 0 mm 1 mps 663 mmHg 34%
    09:00 +26°C° 0 mm 1 mps 663 mmHg 29%
    10:00 +27°C° 0 mm 1 mps 663 mmHg 24%
    11:00 +28°C° 0 mm 1 mps 664 mmHg 20%
    12:00 +29°C° 0 mm 2 mps 664 mmHg 20%
    13:00 +29°C° 0 mm 2 mps 664 mmHg 19%
    14:00 +29°C° 0 mm 2 mps 664 mmHg 19%
    15:00 +29°C° 0 mm 2 mps 663 mmHg 22%
    16:00 +28°C° 0 mm 2 mps 663 mmHg 24%
    17:00 +28°C° 0 mm 2 mps 663 mmHg 27%
    18:00 +27°C° 0 mm 2 mps 663 mmHg 31%
    19:00 +25°C° 0 mm 1 mps 662 mmHg 35%
    20:00 +24°C° 0 mm 1 mps 662 mmHg 39%
    21:00 +24°C° 0 mm 1 mps 662 mmHg 39%
    22:00 +23°C° 0 mm 1 mps 662 mmHg 39%
    23:00 +23°C° 0 mm 1 mps 662 mmHg 39%

    Tomorrow, 24 September, Monday

    Time Temperature Precipitation Wind Pressure Humidity
    00:00 +22°C° 0 mm 1 mps 662 mmHg 39%
    01:00 +21°C° 0 mm 1 mps 662 mmHg 39%
    02:00 +21°C° 0 mm 1 mps 662 mmHg 39%
    03:00 +20°C° 0 mm 1 mps 661 mmHg 39%
    04:00 +20°C° 0 mm 1 mps 661 mmHg 39%
    05:00 +20°C° 0 mm 1 mps 661 mmHg 39%
    06:00 +22°C° 0 mm 1 mps 662 mmHg 34%
    07:00 +24°C° 0 mm 1 mps 663 mmHg 29%
    08:00 +26°C° 0 mm 1 mps 663 mmHg 24%
    09:00 +27°C° 0 mm 1 mps 663 mmHg 22%
    10:00 +28°C° 0 mm 1 mps 664 mmHg 19%
    11:00 +29°C° 0 mm 2 mps 664 mmHg 17%
    12:00 +30°C° 0 mm 2 mps 663 mmHg 17%
    13:00 +30°C° 0 mm 2 mps 663 mmHg 17%
    14:00 +30°C° 0 mm 2 mps 663 mmHg 17%
    15:00 +30°C° 0 mm 2 mps 662 mmHg 19%
    16:00 +29°C° 0 mm 1 mps 662 mmHg 21%
    17:00 +29°C° 0 mm 1 mps 662 mmHg 23%
    18:00 +27°C° 0 mm 1 mps 662 mmHg 26%
    19:00 +26°C° 0 mm 1 mps 661 mmHg 29%
    20:00 +25°C° 0 mm 1 mps 661 mmHg 32%
    21:00 +24°C° 0 mm 1 mps 661 mmHg 33%
    22:00 +22°C° 0 mm 0 mps 661 mmHg 33%
    23:00 +21°C° 0 mm 0 mps 661 mmHg 34%

    Day after tomorrow, 25 September, Tuesday

    Time Temperature Precipitation Wind Pressure Humidity
    00:00 +20°C° 0 mm 0 mps 660 mmHg 35%
    01:00 +20°C° 0 mm 0 mps 660 mmHg 36%
    02:00 +19°C° 0 mm 0 mps 660 mmHg 37%
    03:00 +19°C° 0 mm 0 mps 660 mmHg 37%
    04:00 +18°C° 0 mm 0 mps 660 mmHg 38%
    05:00 +18°C° 0 mm 0 mps 659 mmHg 38%
    06:00 +20°C° 0 mm 0 mps 660 mmHg 34%
    07:00 +22°C° 0 mm 0 mps 661 mmHg 29%
    08:00 +24°C° 0 mm 0 mps 662 mmHg 24%
    09:00 +27°C° 0 mm 1 mps 662 mmHg 23%
    10:00 +28°C° 0 mm 1 mps 662 mmHg 21%
    11:00 +29°C° 0 mm 2 mps 662 mmHg 20%
    12:00 +29°C° 0 mm 2 mps 661 mmHg 21%
    13:00 +30°C° 0 mm 2 mps 661 mmHg 23%
    14:00 +30°C° 0 mm 3 mps 660 mmHg 24%
    15:00 +29°C° 0 mm 2 mps 660 mmHg 27%
    16:00 +28°C° 0 mm 2 mps 660 mmHg 31%
    17:00 +28°C° 0 mm 2 mps 660 mmHg 34%
    18:00 +26°C° 0 mm 2 mps 660 mmHg 39%
    19:00 +25°C° 0 mm 2 mps 660 mmHg 44%
    20:00 +24°C° 0 mm 1 mps 660 mmHg 49%
    21:00 +24°C° 0 mm 1 mps 659 mmHg 51%
    22:00 +23°C° 0 mm 1 mps 659 mmHg 53%
    23:00 +22°C° 0 mm 1 mps 659 mmHg 56%

    26 September, Wednesday

    Time Temperature Precipitation Wind Pressure Humidity
    00:00 +22°C° 0 mm 1 mps 659 mmHg 59%
    01:00 +21°C° 0 mm 1 mps 658 mmHg 61%
    02:00 +21°C° 0 mm 1 mps 658 mmHg 64%
    03:00 +20°C° 0 mm 1 mps 658 mmHg 66%
    04:00 +20°C° 0 mm 1 mps 658 mmHg 69%
    05:00 +19°C° 0 mm 1 mps 657 mmHg 71%
    06:00 +21°C° 0 mm 1 mps 658 mmHg 64%
    07:00 +22°C° 0 mm 1 mps 658 mmHg 58%
    08:00 +23°C° 0 mm 1 mps 659 mmHg 51%
    09:00 +24°C° 0 mm 2 mps 659 mmHg 45%
    10:00 +25°C° 0 mm 2 mps 659 mmHg 39%
    11:00 +27°C° 0 mm 2 mps 659 mmHg 33%
    12:00 +27°C° 0 mm 2 mps 659 mmHg 33%
    13:00 +27°C° 0 mm 3 mps 659 mmHg 34%
    14:00 +27°C° 0 mm 3 mps 659 mmHg 34%
    15:00 +27°C° 0 mm 3 mps 658 mmHg 38%
    16:00 +26°C° 0 mm 3 mps 658 mmHg 42%
    17:00 +25°C° 0 mm 3 mps 658 mmHg 46%
    18:00 +24°C° 0 mm 3 mps 658 mmHg 51%
    19:00 +23°C° 0 mm 2 mps 658 mmHg 56%
    20:00 +21°C° 0 mm 2 mps 658 mmHg 62%
    21:00 +21°C° 0 mm 2 mps 658 mmHg 64%
    22:00 +20°C° 0 mm 2 mps 658 mmHg 66%
    23:00 +20°C° 0 mm 1 mps 657 mmHg 69%

    27 September, Thursday

    Time Temperature Precipitation Wind Pressure Humidity
    00:00 +20°C° 0 mm 1 mps 657 mmHg 70%
    01:00 +19°C° 0 mm 1 mps 657 mmHg 71%
    02:00 +19°C° 0 mm 1 mps 657 mmHg 72%
    03:00 +18°C° 0 mm 1 mps 657 mmHg 71%
    04:00 +18°C° 0 mm 1 mps 656 mmHg 71%
    05:00 +16°C° 0 mm 1 mps 656 mmHg 71%
    06:00 +19°C° 0 mm 1 mps 657 mmHg 63%
    07:00 +20°C° 0 mm 1 mps 658 mmHg 56%
    08:00 +20°C° 0 mm 2 mps 658 mmHg 48%
    09:00 +23°C° 0 mm 2 mps 658 mmHg 42%
    10:00 +24°C° 0 mm 3 mps 659 mmHg 36%
    11:00 +25°C° 0 mm 4 mps 659 mmHg 29%
    12:00 +25°C° 0 mm 4 mps 659 mmHg 32%
    13:00 +26°C° 0 mm 5 mps 659 mmHg 34%
    14:00 +26°C° 0 mm 5 mps 659 mmHg 36%
    15:00 +25°C° 0 mm 5 mps 659 mmHg 43%
    16:00 +23°C° 0 mm 4 mps 659 mmHg 49%
    17:00 +22°C° 0 mm 4 mps 659 mmHg 56%
    18:00 +21°C° 0 mm 4 mps 659 mmHg 61%
    19:00 +21°C° 0 mm 3 mps 659 mmHg 66%
    20:00 +20°C° 0 mm 3 mps 660 mmHg 72%
    21:00 +19°C° 0 mm 3 mps 660 mmHg 74%
    22:00 +19°C° 0 mm 2 mps 660 mmHg 76%
    23:00 +18°C° 0 mm 2 mps 660 mmHg 78%

    28 September, Friday

    Time Temperature Precipitation Wind Pressure Humidity
    00:00 +18°C° 0 mm 2 mps 660 mmHg 79%
    01:00 +17°C° 0 mm 2 mps 660 mmHg 80%
    02:00 +18°C° 0 mm 1 mps 660 mmHg 81%
    03:00 +18°C° 0 mm 1 mps 660 mmHg 82%
    04:00 +16°C° 0 mm 1 mps 660 mmHg 83%
    05:00 +16°C° 0 mm 1 mps 660 mmHg 83%
    06:00 +18°C° 0 mm 1 mps 661 mmHg 75%
    07:00 +19°C° 0 mm 1 mps 661 mmHg 67%
    08:00 +20°C° 0 mm 1 mps 662 mmHg 60%
    09:00 +21°C° 0 mm 2 mps 662 mmHg 52%
    10:00 +22°C° 0 mm 3 mps 662 mmHg 45%
    11:00 +25°C° 0 mm 4 mps 663 mmHg 37%
    12:00 +25°C° 0 mm 4 mps 662 mmHg 37%
    13:00 +26°C° 0 mm 4 mps 662 mmHg 37%
    14:00 +26°C° 0 mm 4 mps 662 mmHg 37%
    15:00 +25°C° 0 mm 4 mps 662 mmHg 40%
    16:00 +25°C° 0 mm 3 mps 662 mmHg 43%
    17:00 +24°C° 0 mm 3 mps 661 mmHg 46%
    18:00 +23°C° 0 mm 2 mps 661 mmHg 51%
    19:00 +21°C° 0 mm 2 mps 661 mmHg 55%
    20:00 +22°C° 0 mm 1 mps 662 mmHg 60%
    21:00 +21°C° 0 mm 1 mps 661 mmHg 61%
    22:00 +21°C° 0 mm 1 mps 661 mmHg 62%
    23:00 +21°C° 0 mm 1 mps 661 mmHg 63%
    Show more